Home   Weather   Hamamatsu   Past weeks

Flag for Japan Past Weather in Hamamatsu, Japan — Yesterday and Last 2 Weeks

Now
72 °F

Mild.


Feels Like: 74 °F
Forecast: 60 / 82 °F
Wind: 7 mph from South

Location: Omaezaki

Current Time: May 29, 2017 at 6:42:24 pm

Latest Report: May 29, 2017 at 5:00 pm


Visibility: 13 mi

Pressure: 29.87 "Hg

Humidity: 70%

Dew Point: 62 °F

Location of HamamatsuLocation

Past Weather in Hamamatsu — Graph

°F

Hamamatsu Temperature Yesterday

Maximum temperature yesterday: 74 °F (at 2:00 pm)
Minimum temperature yesterday: 58 °F (at 5:00 am)
Average temperature yesterday: 67 °F

High & Low Weather Summary for the Past Weeks

 TemperatureHumidityPressure
High75 °F (May 22, 1:00 pm)100% (May 16, 12:00 am)30.07 "Hg (May 16, 12:00 am)
Low58 °F (May 18, 4:00 am)51% (May 27, 12:00 pm)29.61 "Hg (May 26, 9:00 am)
Average67 °F82%29.87 "Hg
* Reported May 14 5:00 pm — May 29 5:00 pm, Hamamatsu. Weather by CustomWeather, © 2017

Note: Actual official high and low records may vary slightly from our data, if they occured in-between our weather recording intervals... More about our weather records

Advertising

Hamamatsu Weather History for the Previous 24 Hours

Scroll right to see more
 ConditionsComfort  
Time TempWeatherWind HumidityBarometerVisibility
5:00 pm
Mon, May 29
72 °FMild.7 mph70%29.87 "Hg12 mi
4:00 pm72 °FMild.7 mph68%29.88 "Hg12 mi
3:00 pm73 °FMild.7 mph70%29.90 "Hg12 mi
2:00 pm72 °FMild.9 mph73%29.91 "Hg12 mi
1:00 pm73 °FSmoke.9 mph71%29.93 "Hg4 mi
12:00 pm71 °FMild.8 mph77%29.93 "Hg12 mi
11:00 am73 °FMild.6 mph71%29.95 "Hg12 mi
10:00 am70 °FMild.7 mph78%29.96 "Hg12 mi
9:00 am68 °FMild.8 mph82%29.97 "Hg12 mi
8:00 am67 °FMild.9 mph82%29.97 "Hg12 mi
7:00 am66 °FMild.8 mph83%29.96 "Hg12 mi
6:00 am64 °FMild.6 mph89%29.95 "Hg12 mi
5:00 am63 °FMild.7 mph91%29.93 "Hg12 mi
4:00 am63 °FMild.7 mph90%29.91 "Hg12 mi
3:00 am64 °FMild.6 mph88%29.90 "Hg12 mi
2:00 am64 °FMild.6 mph85%29.90 "Hg12 mi
1:00 am64 °FMild.6 mph89%29.90 "Hg12 mi
12:00 am65 °FMild.5 mph89%29.91 "Hg12 mi
11:00 pm
Sun, May 28
65 °FMild.3 mph85%29.91 "Hg12 mi
10:00 pm66 °FMild.5 mph89%29.91 "Hg12 mi
9:00 pm66 °FMild.3 mph88%29.91 "Hg12 mi
8:00 pm67 °FMild.9 mph84%29.90 "Hg12 mi
7:00 pm68 °FMild.14 mph78%29.87 "Hg12 mi
6:00 pm69 °FMild.16 mph74%29.85 "Hg12 mi
Weather by CustomWeather, © 2017

See weather overviewHow to use our weather pages